Time,TemperatureF,DewpointF,PressureIn,WindDirection,WindDirectionDegrees,WindSpeedMPH,WindSpeedGustMPH,Humidity,HourlyPrecipIn,Conditions,Clouds,dailyrainin,SoftwareType,DateUTC
2013-03-04 00:00:00,20.4,16.6,29.99,NW,315,2.0,9.0,85,0.00,,,-99.99,WeatherLink 5.6,2013-03-04 05:00:00,
2013-03-04 00:30:00,20.5,16.7,30.00,NW,315,3.0,9.0,85,0.00,,,-99.99,WeatherLink 5.6,2013-03-04 05:30:00,
2013-03-04 01:00:00,20.5,17.0,30.01,NW,315,3.0,11.0,86,0.00,,,-99.99,WeatherLink 5.6,2013-03-04 06:00:00,
2013-03-04 01:30:00,20.3,17.0,30.01,NW,315,5.0,11.0,87,0.00,,,-99.99,WeatherLink 5.6,2013-03-04 06:30:00,
2013-03-04 02:00:00,20.1,16.9,30.02,NW,315,4.0,10.0,87,0.00,,,-99.99,WeatherLink 5.6,2013-03-04 07:00:00,
2013-03-04 02:30:00,20.0,16.8,30.02,NW,315,4.0,9.0,87,0.00,,,-99.99,WeatherLink 5.6,2013-03-04 07:30:00,
2013-03-04 03:00:00,19.7,16.5,30.02,NW,315,3.0,9.0,87,0.00,,,-99.99,WeatherLink 5.6,2013-03-04 08:00:00,
2013-03-04 03:30:00,19.7,16.2,30.02,NW,315,3.0,7.0,86,0.00,,,-99.99,WeatherLink 5.6,2013-03-04 08:30:00,
2013-03-04 04:00:00,19.6,16.4,30.03,NW,315,4.0,8.0,87,0.00,,,-99.99,WeatherLink 5.6,2013-03-04 09:00:00,
2013-03-04 04:30:00,19.7,16.2,30.05,WNW,292,4.0,9.0,86,0.00,,,-99.99,WeatherLink 5.6,2013-03-04 09:30:00,
2013-03-04 05:00:00,19.3,15.8,30.05,NW,315,3.0,8.0,86,0.00,,,-99.99,WeatherLink 5.6,2013-03-04 10:00:00,
2013-03-04 05:30:00,18.5,15.0,30.06,NW,315,3.0,7.0,86,0.00,,,-99.99,WeatherLink 5.6,2013-03-04 10:30:00,
2013-03-04 06:00:00,18.5,15.0,30.07,NW,315,4.0,10.0,86,0.00,,,-99.99,WeatherLink 5.6,2013-03-04 11:00:00,
2013-03-04 06:30:00,18.0,14.8,30.09,NW,315,1.0,5.0,87,0.00,,,-99.99,WeatherLink 5.6,2013-03-04 11:30:00,
2013-03-04 07:00:00,17.7,14.5,30.10,NW,315,2.0,6.0,87,0.00,,,-99.99,WeatherLink 5.6,2013-03-04 12:00:00,
2013-03-04 07:30:00,18.9,15.7,30.10,NW,315,0.0,3.0,87,0.00,,,-99.99,WeatherLink 5.6,2013-03-04 12:30:00,
2013-03-04 08:00:00,20.2,15.6,30.11,WNW,292,0.0,5.0,82,0.00,,,-99.99,WeatherLink 5.6,2013-03-04 13:00:00,
2013-03-04 08:30:00,21.4,15.3,30.11,West,270,1.0,6.0,77,0.00,,,-99.99,WeatherLink 5.6,2013-03-04 13:30:00,
2013-03-04 09:00:00,22.7,16.0,30.10,West,270,1.0,11.0,75,0.00,,,-99.99,WeatherLink 5.6,2013-03-04 14:00:00,
2013-03-04 09:30:00,25.7,17.9,30.09,North,0,0.0,2.0,72,0.00,,,-99.99,WeatherLink 5.6,2013-03-04 14:30:00,
2013-03-04 10:00:00,24.3,16.6,30.10,WNW,292,2.0,9.0,72,0.01,,,-99.99,WeatherLink 5.6,2013-03-04 15:00:00,
2013-03-04 10:30:00,26.4,17.6,30.10,West,270,1.0,10.0,69,0.01,,,-99.99,WeatherLink 5.6,2013-03-04 15:30:00,
2013-03-04 11:00:00,27.1,17.2,30.08,NNW,337,1.0,7.0,66,0.01,,,-99.99,WeatherLink 5.6,2013-03-04 16:00:00,
2013-03-04 11:30:00,28.8,17.8,30.08,WNW,292,1.0,8.0,63,0.02,,,-99.99,WeatherLink 5.6,2013-03-04 16:30:00,
2013-03-04 12:00:00,30.9,17.4,30.06,WNW,292,1.0,9.0,57,0.02,,,-99.99,WeatherLink 5.6,2013-03-04 17:00:00,
2013-03-04 12:30:00,32.2,15.6,30.05,WNW,292,1.0,11.0,50,0.02,,,-99.99,WeatherLink 5.6,2013-03-04 17:30:00,
2013-03-04 13:00:00,33.4,15.3,30.03,NW,315,1.0,8.0,47,0.02,,,-99.99,WeatherLink 5.6,2013-03-04 18:00:00,
2013-03-04 13:30:00,35.3,17.1,30.02,South,180,1.0,10.0,47,0.02,,,-99.99,WeatherLink 5.6,2013-03-04 18:30:00,
2013-03-04 14:00:00,36.4,18.1,30.00,WSW,247,1.0,9.0,47,0.02,,,-99.99,WeatherLink 5.6,2013-03-04 19:00:00,
2013-03-04 14:30:00,38.1,19.1,29.98,SSW,202,1.0,11.0,46,0.02,,,-99.99,WeatherLink 5.6,2013-03-04 19:30:00,
2013-03-04 15:00:00,39.3,18.6,29.97,SSW,202,1.0,9.0,43,0.01,,,-99.99,WeatherLink 5.6,2013-03-04 20:00:00,
2013-03-04 15:30:00,40.5,19.2,29.96,WSW,247,1.0,8.0,42,0.00,,,-99.99,WeatherLink 5.6,2013-03-04 20:30:00,
2013-03-04 16:00:00,40.7,19.9,29.97,South,180,1.0,7.0,43,0.00,,,-99.99,WeatherLink 5.6,2013-03-04 21:00:00,
2013-03-04 16:30:00,40.4,20.7,29.96,SSE,157,1.0,4.0,45,0.00,,,-99.99,WeatherLink 5.6,2013-03-04 21:30:00,
2013-03-04 17:00:00,39.3,22.7,29.97,SSE,157,1.0,5.0,51,0.00,,,-99.99,WeatherLink 5.6,2013-03-04 22:00:00,
2013-03-04 17:30:00,39.4,21.8,29.97,South,180,2.0,10.0,49,0.00,,,-99.99,WeatherLink 5.6,2013-03-04 22:30:00,
2013-03-04 18:00:00,39.0,20.9,29.98,South,180,3.0,11.0,48,0.00,,,-99.99,WeatherLink 5.6,2013-03-04 23:00:00,
2013-03-04 18:30:00,38.5,21.5,29.98,South,180,2.0,10.0,50,0.00,,,-99.99,WeatherLink 5.6,2013-03-04 23:30:00,
2013-03-04 19:00:00,38.4,21.4,29.98,South,180,5.0,14.0,50,0.00,,,-99.99,WeatherLink 5.6,2013-03-05 00:00:00,
2013-03-04 19:30:00,38.0,21.0,29.98,South,180,5.0,14.0,50,0.00,,,-99.99,WeatherLink 5.6,2013-03-05 00:30:00,
2013-03-04 20:00:00,37.9,21.4,29.97,South,180,3.0,10.0,51,0.00,,,-99.99,WeatherLink 5.6,2013-03-05 01:00:00,
2013-03-04 20:30:00,37.7,20.7,29.97,South,180,3.0,11.0,50,0.00,,,-99.99,WeatherLink 5.6,2013-03-05 01:30:00,
2013-03-04 21:00:00,36.8,21.7,29.96,South,180,3.0,11.0,54,0.00,,,-99.99,WeatherLink 5.6,2013-03-05 02:00:00,
2013-03-04 21:30:00,36.6,22.8,29.94,South,180,4.0,14.0,57,0.00,,,-99.99,WeatherLink 5.6,2013-03-05 02:30:00,
2013-03-04 22:00:00,37.0,22.3,29.95,South,180,4.0,14.0,55,0.00,,,-99.99,WeatherLink 5.6,2013-03-05 03:00:00,
2013-03-04 22:30:00,37.1,23.3,29.94,South,180,7.0,15.0,57,0.00,,,-99.99,WeatherLink 5.6,2013-03-05 03:30:00,
2013-03-04 23:00:00,37.6,22.9,29.93,South,180,7.0,15.0,55,0.00,,,-99.99,WeatherLink 5.6,2013-03-05 04:00:00,
2013-03-04 23:30:00,37.5,22.3,29.92,South,180,6.0,16.0,54,0.00,,,-99.99,WeatherLink 5.6,2013-03-05 04:30:00,